Flight Track Log - Related Links

Times and Time Zones

All times are in EDT time to prevent confusion due to time zone crossing. See the SKW6345 flight status page for this flight to view local times or setup timezone preferences in your user account.

Time Position Orientation Groundspeed Altitude Reporting Facility
EDT Latitude Longitude Course Direction KTS MPH feet Rate Location/Type
Mon 11:10:13 AM 37.6333 -122.3500 28° Northeast 165 190 1,000  Level Northern Cal TRACON
Mon 11:11:07 AM 37.6833 -122.3167 28° Northeast 204 235 2,900 1,982 Climbing Northern Cal TRACON
Mon 11:12:02 AM 37.7167 -122.2667 50° Northeast 263 303 4,600 2,084 Climbing Northern Cal TRACON
Mon 11:14:17 AM 37.8497 -122.1250 40° Northeast 297 342 9,500 2,112 Climbing Oakland Center
Mon 11:15:18 AM 37.9358 -122.0425 37° Northeast 324 373 11,500 1,820 Climbing Oakland Center
Mon 11:16:19 AM 38.0122 -121.9692 37° Northeast 343 395 13,200 1,610 Climbing Oakland Center
Mon 11:17:21 AM 38.0911 -121.8928 37° Northeast 353 406 14,800 1,366 Climbing Oakland Center
Mon 11:18:22 AM 38.1728 -121.8144 37° Northeast 364 419 16,000 1,180 Climbing Oakland Center
Mon 11:19:23 AM 38.2597 -121.7414 33° Northeast 380 437 17,200 1,230 Climbing Oakland Center
Mon 11:20:24 AM 38.3486 -121.6672 33° Northeast 385 443 18,500 1,171 Climbing Oakland Center
Mon 11:21:26 AM 38.4422 -121.5900 33° Northeast 391 450 19,600 1,073 Climbing Oakland Center
Mon 11:22:27 AM 38.5353 -121.5131 33° Northeast 396 456 20,700 934 Climbing Oakland Center
Mon 11:23:28 AM 38.6253 -121.4375 33° Northeast 402 463 21,500 836 Climbing Oakland Center
Mon 11:24:29 AM 38.7297 -121.3517 33° Northeast 412 474 22,400 780 Climbing Oakland Center
Mon 11:25:31 AM 38.8267 -121.2689 34° Northeast 415 478 23,100 732 Climbing Oakland Center
Mon 11:26:32 AM 38.9258 -121.1850 33° Northeast 423 487 23,900 689 Climbing Oakland Center
Mon 11:27:33 AM 39.0250 -121.0997 34° Northeast 426 490 24,500 639 Climbing Oakland Center
Mon 11:28:34 AM 39.1258 -121.0153 33° Northeast 431 496 25,200 683 Climbing Oakland Center
Mon 11:29:36 AM 39.2481 -120.9089 34° Northeast 438 504 25,900 683 Climbing Oakland Center
Mon 11:30:37 AM 39.3511 -120.8211 33° Northeast 441 507 26,600 590 Climbing Oakland Center
Mon 11:31:38 AM 39.4547 -120.7331 33° Northeast 444 511 27,100 488 Climbing Oakland Center
Mon 11:32:40 AM 39.5583 -120.6431 34° Northeast 448 516 27,600 488 Climbing Oakland Center
Mon 11:33:41 AM 39.6631 -120.5517 34° Northeast 450 518 28,100 492 Climbing Oakland Center
Mon 11:34:42 AM 39.7672 -120.4600 34° Northeast 451 519 28,600 492 Climbing Oakland Center
Mon 11:35:43 AM 39.8739 -120.3703 33° Northeast 455 524 29,100 488 Climbing Oakland Center
Mon 11:36:45 AM 39.9778 -120.2775 34° Northeast 455 524 29,600 537 Climbing Oakland Center
Mon 11:37:46 AM 40.0867 -120.1822 34° Northeast 457 526 30,200 590 Climbing Oakland Center
Mon 11:38:47 AM 40.1925 -120.0900 34° Northeast 456 525 30,800 537 Climbing Oakland Center
Mon 11:39:49 AM 40.2986 -119.9950 34° Northeast 460 529 31,300 439 Climbing Oakland Center
Mon 11:40:50 AM 40.4047 -119.9008 34° Northeast 459 528 31,700 344 Climbing Oakland Center
Mon 11:41:51 AM 40.5328 -119.7856 34° Northeast 461 531 32,000 295 Climbing Oakland Center
Mon 11:42:52 AM 40.6383 -119.6917 34° Northeast 474 545 32,300 293 Climbing Oakland Center
Mon 11:43:54 AM 40.7458 -119.5942 34° Northeast 473 544 32,600 293 Climbing Oakland Center
Mon 11:44:55 AM 40.8606 -119.4911 34° Northeast 482 555 32,900 197 Climbing Oakland Center
Mon 11:45:56 AM 40.9658 -119.3956 34° Northeast 478 550 33,000 65 Climbing Oakland Center
Mon 11:46:28 AM 41.0375 -119.3300 35° Northeast 483 556 33,000  Level Salt Lake Center
Mon 11:47:30 AM 41.1467 -119.2319 34° Northeast 490 564 33,000  Level Salt Lake Center
Mon 11:48:32 AM 41.2558 -119.1322 34° Northeast 494 568 33,000  Level Salt Lake Center
Mon 11:49:34 AM 41.3825 -119.0139 35° Northeast 496 571 33,000  Level Salt Lake Center
Mon 11:50:36 AM 41.4903 -118.9150 34° Northeast 493 567 33,000  Level Salt Lake Center
Mon 11:51:39 AM 41.6156 -118.7992 35° Northeast 490 564 33,000  Level Salt Lake Center
Mon 11:52:41 AM 41.7228 -118.6983 35° Northeast 491 565 33,000  Level Salt Lake Center
Mon 11:53:43 AM 41.8481 -118.5803 35° Northeast 491 565 33,000  Level Salt Lake Center
Mon 11:54:45 AM 41.9553 -118.4794 35° Northeast 490 564 33,000  Level Salt Lake Center
Mon 11:55:47 AM 42.0803 -118.3614 35° Northeast 491 565 33,000  Level Salt Lake Center
Mon 11:56:49 AM 42.1858 -118.2597 36° Northeast 488 562 33,000  Level Salt Lake Center
Mon 11:57:51 AM 42.2928 -118.1575 35° Northeast 489 563 33,000  Level Salt Lake Center
Mon 11:58:53 AM 42.4214 -118.0306 36° Northeast 493 567 33,000  Level Salt Lake Center
Mon 11:59:55 AM 42.5275 -117.9278 36° Northeast 491 565 33,000  Level Salt Lake Center
Mon 12:00:57 PM 42.6344 -117.7817 45° Northeast 488 562 33,000  Level Salt Lake Center
Mon 12:01:59 PM 42.7108 -117.6361 54° Northeast 493 567 33,000  Level Salt Lake Center
Mon 12:03:01 PM 42.8003 -117.4686 54° Northeast 492 566 33,000  Level Salt Lake Center
Mon 12:04:03 PM 42.8761 -117.3239 54° Northeast 489 563 33,000  Level Salt Lake Center
Mon 12:05:05 PM 42.9656 -117.1547 54° Northeast 492 566 33,000  Level Salt Lake Center
Mon 12:06:07 PM 43.0408 -117.0092 55° Northeast 490 564 33,000  Level Salt Lake Center
Mon 12:07:09 PM 43.1292 -116.8386 55° Northeast 493 567 33,000  Level Salt Lake Center
Mon 12:08:11 PM 43.2047 -116.6914 55° Northeast 494 568 33,000  Level Salt Lake Center
Mon 12:09:13 PM 43.2792 -116.5458 55° Northeast 488 562 33,000  Level Salt Lake Center
Mon 12:10:15 PM 43.3664 -116.3742 55° Northeast 492 566 33,000  Level Salt Lake Center
Mon 12:11:17 PM 43.4408 -116.2286 55° Northeast 489 563 33,000  Level Salt Lake Center
Mon 12:12:19 PM 43.5261 -116.0572 56° Northeast 488 562 33,000  Level Salt Lake Center
Mon 12:13:21 PM 43.6000 -115.9106 55° Northeast 488 562 33,000  Level Salt Lake Center
Mon 12:14:23 PM 43.6853 -115.7389 55° Northeast 488 562 33,000  Level Salt Lake Center
Mon 12:15:25 PM 43.7567 -115.5925 56° Northeast 484 557 33,000  Level Salt Lake Center
Mon 12:16:27 PM 43.8431 -115.4203 55° Northeast 489 563 33,000  Level Salt Lake Center
Mon 12:17:29 PM 43.9153 -115.2725 56° Northeast 486 559 33,000  Level Salt Lake Center
Mon 12:18:31 PM 43.9994 -115.1000 56° Northeast 485 558 33,000  Level Salt Lake Center
Mon 12:19:33 PM 44.0714 -114.9503 56° Northeast 487 560 33,000  Level Salt Lake Center
Mon 12:20:35 PM 44.1553 -114.7769 56° Northeast 486 559 33,000  Level Salt Lake Center
Mon 12:21:37 PM 44.2269 -114.6281 56° Northeast 486 559 33,000  Level Salt Lake Center
Mon 12:22:39 PM 44.3094 -114.4544 56° Northeast 483 556 33,000  Level Salt Lake Center
Mon 12:23:41 PM 44.3808 -114.3039 56° Northeast 485 558 33,000  Level Salt Lake Center
Mon 12:24:43 PM 44.4636 -114.1300 56° Northeast 483 556 33,000  Level Salt Lake Center
Mon 12:25:45 PM 44.5344 -113.9794 57° Northeast 483 556 33,000  Level Salt Lake Center
Mon 12:26:47 PM 44.6089 -113.8131 58° Northeast 477 549 33,000  Level Salt Lake Center
Mon 12:27:49 PM 44.6758 -113.6619 58° Northeast 479 551 33,000 -774 Level Salt Lake Center
Mon 12:28:51 PM 44.7581 -113.4842 57° Northeast 485 558 31,400 -1,839 Descending Salt Lake Center
Mon 12:29:53 PM 44.8319 -113.3239 57° Northeast 503 579 29,200 -2,226 Descending Salt Lake Center
Mon 12:30:55 PM 44.9128 -113.1475 57° Northeast 481 554 26,800 -2,226 Descending Salt Lake Center
Mon 12:31:57 PM 44.9778 -113.0044 57° Northeast 454 522 24,600 -2,226 Descending Salt Lake Center
Mon 12:32:59 PM 45.0508 -112.8408 58° Northeast 440 506 22,200 -2,226 Descending Salt Lake Center
Mon 12:34:01 PM 45.1150 -112.6992 57° Northeast 444 511 20,000 -2,323 Descending Salt Lake Center
Mon 12:35:03 PM 45.1833 -112.5425 58° Northeast 423 487 17,400 -1,440 Descending Salt Lake Center
Mon 12:36:06 PM 45.2400 -112.4128 58° Northeast 408 470 17,000 -288 Descending Salt Lake Center
Mon 12:37:08 PM 45.3044 -112.2686 58° Northeast 391 450 16,800 -774 Descending Salt Lake Center
Mon 12:38:10 PM 45.3600 -112.1417 58° Northeast 393 452 15,400 -1,258 Descending Salt Lake Center
Mon 12:39:12 PM 45.4139 -112.0178 58° Northeast 394 453 14,200 -1,161 Descending Salt Lake Center
Mon 12:40:14 PM 45.4653 -111.8992 58° Northeast 361 415 13,000 -581 Descending Salt Lake Center
Mon 12:41:16 PM 45.5353 -111.7764 51° Northeast 341 392 13,000 -194 Level Salt Lake Center
Mon 12:42:18 PM 45.6164 -111.7078 31° Northeast 338 389 12,600 -677 Descending Salt Lake Center
Mon 12:43:20 PM 45.6956 -111.6353 33° Northeast 336 387 11,600 -1,258 Descending Salt Lake Center
Mon 12:44:22 PM 45.7469 -111.5325 54° Northeast 324 373 10,000 -1,548 Descending Salt Lake Center

Login

Don't have an account? Register now (free) for customized features, flight alerts, and more!